EW4964 Weather Reports


Display with metric or nautical units.
time (UTC)temp
F
wind
direction
speed
MPH
gust
MPH
rain 1hr
in
rain 24hr
in
rain mn
in
humidity
%
barometer
mb
20260502231508 51 225 2.0 4.0 0.00 0.00 0.00 31 1022.5
20260502224508 51 188 2.0 4.0 0.00 0.00 0.00 31 1022.8
20260502221508 51 72 0.0 2.0 0.00 0.00 0.00 31 1022.8
20260502214507 53 119 1.0 2.0 0.00 0.00 0.00 27 1022.9
20260502213008 53 172 1.0 3.0 0.00 0.00 0.00 27 1023.0
20260502211507 54 160 2.0 4.0 0.00 0.00 0.00 27 1023.0
20260502210008 54 210 2.0 4.0 0.00 0.00 0.00 27 1023.1
20260502203008 55 171 2.0 4.0 0.00 0.00 0.00 25 1023.3
20260502201507 55 188 2.0 4.0 0.00 0.00 0.00 25 1023.5
20260502200008 55 185 3.0 5.0 0.00 0.00 0.00 25 1023.5
20260502193007 55 183 2.0 4.0 0.00 0.00 0.00 25 1023.4
20260502191507 55 202 1.0 4.0 0.00 0.00 0.00 25 1023.6
20260502190007 56 225 1.0 2.0 0.00 0.00 0.00 25 1023.5
20260502184508 57 160 0.0 2.0 0.00 0.00 0.00 25 1023.2
20260502183007 58 36 0.0 2.0 0.00 0.00 0.00 25 1023.2
20260502181508 60 80 0.0 2.0 0.00 0.00 0.00 23 1023.1
20260502151507 78 173 3.0 8.0 0.00 0.00 0.00 21 1024.2
20260502123006 70 270 4.0 8.0 0.00 0.00 0.00 21 1025.8
20260502121507 69 303 3.0 8.0 0.00 0.00 0.00 22 1025.8
20260502114506 70 342 3.0 5.0 0.00 0.00 0.00 22 1026.3
20260502113006 71 231 4.0 7.0 0.00 0.00 0.00 22 1026.4
20260502111506 69 329 2.0 6.0 0.00 0.00 0.00 21 1026.3
20260502104506 69 270 2.0 6.0 0.00 0.00 0.00 21 1026.6
20260502103006 70 186 3.0 7.0 0.00 0.00 0.00 22 1026.6
20260502101506 68 149 3.0 5.0 0.00 0.00 0.00 22 1027.1
20260502091506 65 188 2.0 5.0 0.00 0.00 0.00 23 1027.4
20260502071505 58 270 2.0 5.0 0.00 0.00 0.00 29 1028.0
20260502064506 56 270 2.0 5.0 0.00 0.00 0.00 31 1028.1
20260502063005 56 273 2.0 4.0 0.00 0.00 0.00 31 1028.0
20260502061506 55 184 1.0 3.0 0.00 0.00 0.00 31 1028.1
20260502060006 53 152 2.0 3.0 0.00 0.00 0.00 31 1028.1
20260502054505 52 90 1.0 2.0 0.00 0.00 0.00 34 1028.2
20260502053005 50 90 0.0 2.0 0.00 0.00 0.00 37 1028.0
20260502043005 44 90 0.0 2.0 0.00 0.00 0.00 41 1027.9
20260502040006 44 90 1.0 2.0 0.00 0.00 0.00 39 1027.7
20260502034506 44 90 1.0 2.0 0.00 0.00 0.00 38 1027.8
20260502033005 44 90 0.0 2.0 0.00 0.00 0.00 38 1027.7
20260502031505 44 90 1.0 2.0 0.00 0.00 0.00 39 1027.8
20260502024505 44 90 0.0 2.0 0.00 0.00 0.00 37 1028.0
20260502021505 44 90 0.0 2.0 0.00 0.00 0.00 37 1027.9
20260502020005 45 90 0.0 2.0 0.00 0.00 0.00 37 1027.9
20260502014504 45 90 0.0 2.0 0.00 0.00 0.00 36 1028.2
20260502013006 45 90 0.0 2.0 0.00 0.00 0.00 36 1027.9
20260502011505 45 90 1.0 2.0 0.00 0.00 0.00 36 1028.3
20260502010005 46 90 1.0 2.0 0.00 0.00 0.00 35 1028.1
20260502001505 47 90 1.0 2.0 0.00 0.00 0.00 34 1028.1
20260501233004 47 90 1.0 3.0 0.00 0.00 0.00 34 1028.6